Theta_e
299 299 300 300 301 303 304 306 308 311 312 313 314 317 318 317 317 314 311 309 309 307 306 307 305 303 301 300 300 299 300 302 302 292 291 290 288 286 286 285 285 284 287
297 298 298 298 299 300 301 302 302 303 305 305 308 308 309 309 308 306 306 305 305 303 302 301 301 299 298 297 296 295 295 294 299 290 288 287 285 285 284 282 283 284 284
294 294 295 296 296 296 297 297 297 298 299 299 300 302 302 301 300 301 301 301 301 300 300 299 298 296 294 292 292 291 291 291 290 289 285 286 285 283 281 282 282 282 283
293 293 292 292 294 294 294 293 293 294 294 294 295 296 296 297 297 296 296 296 296 297 297 296 295 294 293 291 290 289 287 288 288 287 284 283 283 281 281 280 279 280 281
291 291 291 291 292 291 290 290 290 290 291 291 291 291 292 293 293 292 292 293 292 292 291 292 291 289 289 289 288 286 286 286 285 283 281 282 280 279 279 279 279 278 280
289 289 289 289 289 288 288 288 288 288 288 288 287 287 288 289 292 293 291 290 289 288 287 287 286 284 287 289 289 289 288 286 285 284 282 280 280 280 279 279 278 277 277
286 286 286 286 286 286 286 285 285 286 287 286 286 286 286 287 291 291 290 288 287 287 286 284 283 282 283 283 287 286 285 286 287 284 282 281 278 279 279 278 278 278 277
283 283 283 284 284 284 284 284 284 285 285 285 285 285 285 286 290 290 289 286 284 284 283 283 282 281 282 282 282 280 280 279 279 280 282 280 279 280 280 279 277 276 276
282 281 281 282 282 282 283 282 283 283 283 283 284 284 284 284 289 290 289 284 283 282 282 282 282 281 283 284 280 279 278 277 281 282 282 282 282 281 279 277 275 274 273
280 280 280 281 281 281 281 282 282 282 283 283 283 283 283 283 287 289 289 283 281 281 281 281 282 282 285 285 280 279 277 276 277 277 278 279 278 278 279 278 276 274 272
279 279 279 280 280 280 281 281 281 281 281 280 281 281 281 281 282 288 289 283 282 280 280 279 280 284 285 286 283 279 278 277 278 275 275 274 273 273 274 274 275 275 272
277 277 277 277 279 280 279 279 279 279 278 278 278 279 279 280 282 285 287 289 283 280 279 279 279 284 284 285 284 281 282 278 275 273 272 271 272 272 272 272 272 272 273
273 272 273 276 278 279 278 278 277 276 276 277 277 278 278 278 279 284 286 288 288 281 279 280 281 283 284 284 284 282 280 275 272 271 271 271 272 272 271 270 270 270 270
271 272 274 274 275 276 277 278 276 275 275 277 277 277 278 276 276 278 281 282 285 285 281 279 281 281 283 282 280 281 274 273 272 271 271 272 271 270 269 270 268 268 268
271 271 272 274 273 274 275 275 277 277 278 277 277 277 277 277 276 280 280 279 281 282 274 273 278 277 278 276 276 273 272 272 271 272 271 269 269 268 268 269 268 267 266
269 270 271 272 272 273 273 273 278 280 281 282 283 282 281 282 283 283 284 284 284 284 277 273 274 276 276 273 273 270 270 270 270 271 270 269 268 268 267 267 267 265 265
267 269 269 270 271 271 271 271 271 274 279 279 280 281 282 283 283 283 283 283 284 284 279 274 274 275 275 273 272 270 269 269 270 270 269 268 268 268 267 266 265 265 265
263 265 267 268 269 270 271 272 272 271 271 272 276 278 279 281 282 282 283 282 279 281 280 275 274 275 274 272 272 270 270 269 268 269 268 268 267 267 266 265 265 264 264
264 266 267 267 268 269 270 270 270 269 270 271 272 274 274 279 280 281 282 278 276 277 279 275 274 274 273 272 272 271 270 268 268 267 267 266 266 265 264 265 265 264 264
262 264 265 266 267 267 268 269 269 270 270 270 270 271 272 271 273 274 276 276 276 276 277 273 272 273 272 271 270 270 269 267 266 266 266 265 265 265 264 264 264 262 261
261 263 264 265 265 266 267 267 268 269 268 269 270 271 275 274 273 273 274 275 275 275 277 273 271 272 271 270 269 268 267 266 266 265 265 264 264 263 264 263 262 262 261
260 263 263 264 265 265 266 267 267 267 268 268 269 270 274 272 271 272 273 274 275 276 278 272 270 270 269 268 267 267 266 265 265 264 264 263 263 262 262 262 261 260 259
261 262 263 264 264 265 266 266 266 266 266 267 267 268 268 269 268 269 270 269 267 269 270 271 269 268 268 268 267 267 265 265 265 264 263 262 262 261 261 260 260 259 258
258 260 261 263 264 264 264 264 265 265 265 266 266 266 266 267 268 268 268 269 266 267 267 269 268 267 266 266 266 266 266 266 265 264 264 262 261 261 260 259 259 258 258
259 261 262 262 262 263 263 263 264 264 264 265 265 265 266 266 266 266 267 268 266 266 266 266 266 266 265 264 264 264 264 266 264 264 263 262 261 260 259 259 258 257 256
260 261 262 262 262 262 262 263 263 263 263 264 264 264 265 265 265 265 266 266 265 265 265 264 264 264 264 263 263 263 263 265 262 262 262 261 260 259 259 258 257 256 255
Wind_Speed
5 5 5 5 5 5 4 5 5 5 5 5 4 5 6 6 6 6 5 4 5 4 3 5 6 5 4 4 3 3 3 3 3 2 3 6 6 8 4 4 5 4 4
5 5 5 5 5 4 4 5 6 6 5 5 6 4 4 2 1 3 4 4 6 6 6 6 6 4 6 5 5 6 4 4 3 5 4 6 3 5 5 5 3 3 4
5 5 5 6 6 6 6 6 6 6 5 5 4 3 3 3 4 5 6 6 6 7 8 8 7 7 6 4 4 5 4 3 4 4 5 2 4 2 4 3 3 3 4
6 6 6 6 5 4 4 5 5 5 5 6 5 5 4 4 5 5 5 6 6 6 6 7 7 9 9 9 7 6 5 4 4 6 3 3 3 2 3 4 2 1 3
6 6 6 6 5 5 5 5 5 4 4 4 4 5 5 4 3 4 5 5 5 5 4 4 5 5 8 8 6 6 7 5 4 4 3 3 4 4 7 4 3 3 1
7 7 7 7 6 6 6 6 5 5 5 4 5 5 6 4 7 8 7 5 6 6 6 5 4 4 6 9 8 10 9 9 9 6 5 5 4 4 4 5 5 4 4
7 6 7 7 8 7 7 6 6 6 5 6 6 6 7 6 11 11 12 5 6 7 7 6 5 4 5 5 7 9 5 4 5 5 6 5 6 6 8 5 3 2 3
7 7 8 9 8 7 6 6 6 5 6 6 6 6 7 6 11 12 12 6 6 7 7 7 7 7 7 8 7 5 4 3 3 2 5 5 6 8 7 4 4 4 4
6 7 9 9 10 9 9 7 6 6 6 6 5 6 7 7 10 12 10 5 6 6 6 7 8 8 13 15 9 8 6 5 5 10 12 13 15 13 10 7 5 5 2
6 8 8 8 9 10 9 9 5 5 7 5 8 6 7 9 10 13 12 4 7 5 5 6 11 9 17 19 9 9 9 8 8 8 8 10 10 8 9 4 6 5 3
5 6 7 8 8 7 8 6 6 7 7 5 8 7 7 7 8 14 18 8 7 5 6 5 6 17 18 21 15 9 9 10 12 7 6 5 6 5 4 4 4 3 3
4 6 8 8 7 7 8 7 6 6 6 7 7 9 6 6 10 14 19 21 13 8 8 5 5 17 18 20 16 14 15 15 7 6 6 6 5 5 5 5 5 4 4
5 6 6 7 7 7 7 8 6 4 5 7 6 8 8 3 5 16 19 20 22 9 4 8 15 19 20 17 20 18 14 9 8 8 7 5 6 5 6 6 5 4 3
8 8 8 8 8 6 4 5 4 5 5 6 6 8 8 3 3 3 6 8 17 13 9 7 10 13 16 12 9 12 6 8 8 7 7 6 6 7 5 5 4 5 3
8 8 9 7 6 8 6 5 6 5 6 8 7 7 9 8 4 9 9 6 7 9 4 3 6 6 7 6 6 6 6 6 6 5 7 7 6 6 6 5 4 4 3
8 6 6 7 8 7 8 9 12 17 19 19 22 17 10 19 23 20 18 19 22 20 7 6 9 9 9 8 8 8 6 7 6 6 7 7 7 8 7 6 5 4 4
8 7 7 7 7 7 7 7 9 8 16 18 19 20 21 22 23 23 19 20 22 19 9 9 9 10 9 9 9 9 9 8 9 6 7 7 7 7 9 7 6 5 5
6 8 7 7 7 7 7 8 7 9 11 9 11 16 19 22 22 23 19 17 10 14 11 8 9 8 8 9 10 10 9 9 10 9 8 8 8 8 7 7 7 6 6
6 6 6 6 6 8 8 8 7 8 9 10 9 11 11 21 22 21 19 9 9 10 10 7 8 7 8 8 8 8 8 9 9 9 8 8 7 7 8 7 6 8 7
7 10 9 6 6 6 6 8 8 8 9 9 8 9 6 6 8 8 8 7 8 9 9 7 7 7 8 7 7 7 8 8 9 8 8 7 7 7 7 8 7 7 5
5 5 8 6 6 6 7 8 8 8 9 9 9 8 20 12 9 7 8 8 9 9 10 7 9 9 8 8 7 8 8 8 9 9 8 8 7 7 6 6 6 5 5
4 6 5 6 6 7 7 7 8 9 9 10 10 10 21 10 9 9 8 8 9 8 8 8 8 9 9 10 10 9 10 9 9 9 9 8 8 7 7 6 6 5 5
4 6 7 7 6 8 8 8 8 9 9 10 10 9 8 8 8 9 9 8 4 3 2 4 7 8 8 8 9 10 10 10 10 9 10 9 9 9 8 8 7 6 6
5 6 7 7 7 7 8 8 8 10 10 10 10 9 9 9 9 9 9 9 4 4 3 4 6 8 8 8 8 8 8 7 8 10 12 10 9 10 8 8 8 7 7
5 6 7 7 7 8 9 9 9 9 9 9 9 9 9 9 9 9 9 8 5 5 6 5 4 8 11 12 11 11 11 15 11 11 9 10 11 13 10 8 9 7 6
6 7 7 7 8 8 9 9 10 10 10 9 9 9 9 9 9 9 8 9 6 6 6 5 6 9 10 9 11 12 13 14 12 14 9 9 10 9 8 9 12 8 7
Wind_Direction
19 6 15 9 352 346 344 331 331 326 316 294 267 246 230 218 197 187 201 193 211 190 171 184 188 162 166 160 194 206 219 172 178 105 100 135 137 155 155 158 153 153 140
2 358 3 349 344 343 340 349 357 339 340 345 326 323 319 311 199 198 209 204 198 189 187 185 192 170 183 170 192 178 200 174 145 148 137 173 143 165 154 164 158 132 152
9 2 356 354 357 350 348 347 345 337 328 325 330 306 277 239 209 210 206 203 204 199 191 189 187 180 184 168 181 186 174 171 152 153 158 182 116 179 146 156 155 163 152
353 354 352 342 332 328 333 334 332 326 320 317 311 304 288 265 250 241 227 216 208 202 192 189 187 191 189 186 189 180 164 167 162 157 127 146 119 176 146 161 168 160 166
349 349 334 327 325 319 316 311 307 306 299 304 314 310 304 288 267 251 248 240 223 221 215 205 197 188 181 184 182 177 170 171 167 163 141 141 161 159 188 171 147 147 114
350 341 336 337 331 313 300 293 288 286 283 276 271 259 260 251 261 241 234 233 219 201 200 199 169 153 179 184 190 177 179 181 191 173 167 180 177 157 144 164 137 153 191
344 341 348 345 337 324 313 308 297 286 272 258 254 248 252 248 234 227 230 227 218 211 204 189 183 182 165 151 143 133 111 184 219 172 188 160 156 161 148 155 164 173 136
343 348 348 343 333 323 316 303 295 287 279 271 262 259 262 254 241 228 231 225 223 217 204 194 192 181 183 165 151 145 141 98 39 29 144 130 126 141 146 137 128 92 75
352 344 336 333 326 325 322 313 298 291 285 277 266 263 255 262 252 230 219 220 236 230 204 188 184 179 189 183 169 164 142 120 103 107 113 123 131 136 132 118 139 138 161
348 327 319 317 316 314 309 308 297 284 279 274 275 252 250 259 235 227 220 212 237 220 197 199 190 180 190 192 183 174 171 166 143 128 128 125 116 132 151 161 151 163 129
321 313 310 309 305 296 300 301 300 299 287 279 281 276 259 255 255 247 229 206 216 219 212 206 199 194 198 199 187 183 181 156 164 145 140 136 138 134 126 99 96 139 138
309 303 300 295 294 301 299 299 286 284 282 287 284 286 273 254 245 251 251 235 222 212 203 193 189 204 206 206 200 195 186 163 150 153 154 163 162 152 148 122 113 90 59
304 293 284 287 295 294 301 302 306 292 275 283 284 288 289 251 239 254 259 246 235 238 224 199 188 201 209 211 209 204 195 158 156 163 172 174 154 137 132 124 115 91 90
305 311 312 310 309 294 291 287 287 290 292 288 285 285 287 278 242 228 247 257 247 233 213 213 212 208 204 192 198 198 144 161 165 175 174 154 126 148 164 165 163 161 152
319 314 310 303 305 306 287 278 290 270 269 291 288 289 293 295 264 249 243 245 244 229 170 155 197 198 199 177 171 140 150 149 153 179 168 158 167 161 171 164 161 156 178
307 303 305 308 303 302 304 307 298 298 297 294 288 284 284 279 286 283 278 264 258 234 211 199 201 202 196 180 169 157 158 159 173 173 177 172 173 176 168 171 171 170 177
273 291 291 290 297 299 297 291 295 289 288 292 293 293 287 285 280 281 267 264 261 249 225 212 209 209 196 183 178 169 175 176 165 192 191 182 179 182 173 175 174 172 174
267 268 275 275 271 276 274 282 286 298 304 300 291 294 292 289 286 281 266 264 259 251 241 208 210 202 197 192 190 185 183 176 183 183 186 177 178 184 172 182 182 180 169
273 271 261 267 274 277 286 283 276 278 282 290 298 289 289 293 291 288 266 246 255 256 246 210 201 192 194 196 202 198 189 182 180 178 181 180 176 177 184 188 182 180 169
260 256 258 263 272 271 271 278 284 284 287 287 286 287 289 290 282 272 266 251 245 255 257 199 188 189 191 192 188 186 183 176 175 175 178 177 184 185 180 180 183 172 188
261 265 264 274 277 278 279 279 281 281 283 283 283 283 286 288 283 268 263 253 246 249 259 199 189 193 187 182 177 177 178 180 179 178 175 176 177 186 181 186 167 173 157
262 275 273 272 274 274 271 270 277 281 282 285 287 287 291 289 288 284 289 276 256 256 258 196 189 187 179 178 176 181 185 185 181 178 177 171 171 175 174 174 171 174 146
257 270 272 269 259 268 274 273 272 272 276 277 280 283 284 280 275 276 280 277 248 260 199 209 195 182 181 182 181 183 186 188 185 174 174 172 176 178 172 174 176 164 161
249 255 264 271 272 271 273 276 271 268 272 278 278 274 275 277 276 272 271 279 235 212 205 194 186 187 182 180 181 179 179 173 173 180 173 173 182 175 167 176 175 168 170
262 267 271 278 280 277 279 276 276 276 274 272 274 274 274 273 272 271 273 275 236 220 210 199 184 184 181 179 181 181 176 174 173 177 179 176 179 178 178 172 164 162 160
262 268 273 275 277 279 280 283 283 281 278 277 276 273 271 270 269 269 268 264 246 231 215 204 201 194 187 185 182 176 175 177 168 172 171 175 173 177 172 164 164 171 160